GW2092 Weather Reports


time (UTC)temp
C
wind
direction
speed
KPH
gust
KPH
rain 1hr
cm
rain 24hr
cm
rain mn
cm
humidity
%
barometer
mb
20260510104555 13 0 0.0 0.0 0.00 0.00 0.00 85 1015.1
20260510103048 13 0 0.0 0.0 0.00 0.00 0.00 84 1015.0
20260510101540 14 0 0.0 0.0 0.00 0.00 0.00 83 1015.0
20260510100037 15 0 0.0 0.0 0.00 0.00 0.00 81 1015.0
20260510094537 15 0 0.0 1.6 0.00 0.00 0.00 80 1015.0
20260510093037 16 0 0.0 1.6 0.00 0.00 0.00 77 1014.9
20260510091542 15 0 0.0 0.0 0.00 0.00 0.00 78 1014.3
20260510090045 15 0 0.0 0.0 0.00 0.00 0.00 77 1014.2
20260510084539 16 0 0.0 1.6 0.00 0.03 0.00 77 1013.8
20260510083052 15 0 0.0 3.2 0.00 0.03 0.00 79 1013.9
20260510081538 15 0 0.0 1.6 0.00 0.03 0.00 84 1014.0
20260510080036 15 0 0.0 0.0 0.00 0.03 0.00 85 1013.2
20260510074543 15 0 0.0 0.0 0.00 0.03 0.00 83 1012.9
20260510073040 15 0 0.0 1.6 0.00 0.03 0.00 83 1013.0
20260510071540 15 61 0.0 1.6 0.00 0.03 0.00 84 1013.2
20260510070039 15 0 0.0 0.0 0.00 0.03 0.00 85 1012.9
20260510064544 15 0 0.0 0.0 0.00 0.03 0.00 85 1013.1
20260510063045 15 0 0.0 0.0 0.00 0.03 0.00 86 1013.6
20260510061543 15 0 0.0 0.0 0.00 0.03 0.00 85 1013.8
20260510060042 15 0 0.0 0.0 0.00 0.03 0.00 85 1013.9
20260510054538 15 0 0.0 0.0 0.00 0.03 0.00 85 1014.0
20260510053046 15 0 0.0 0.0 0.00 0.03 0.00 85 1014.1
20260510051547 15 0 0.0 0.0 0.00 0.03 0.00 83 1014.1
20260510050044 15 0 0.0 0.0 0.00 0.03 0.00 82 1014.0
20260510044549 15 0 0.0 1.6 0.00 0.03 0.03 80 1013.8
20260510043040 15 0 0.0 0.0 0.00 0.03 0.03 76 1013.6
20260510041546 15 0 0.0 0.0 0.00 0.03 0.03 76 1013.5
20260510040048 15 0 0.0 0.0 0.00 0.03 0.03 78 1013.7
20260510034548 15 0 0.0 0.0 0.00 0.03 0.03 76 1013.5
20260510033053 15 0 0.0 0.0 0.00 0.03 0.03 77 1013.1
20260510031544 16 0 0.0 0.0 0.00 0.03 0.03 73 1012.9
20260510030043 16 0 0.0 0.0 0.00 0.03 0.03 73 1012.8
20260510024541 16 0 0.0 0.0 0.00 0.03 0.03 73 1012.7
20260510023045 17 0 0.0 0.0 0.00 0.03 0.03 70 1012.4
20260510021546 17 0 0.0 0.0 0.00 0.03 0.03 70 1011.9
20260510020045 17 0 0.0 0.0 0.00 0.03 0.03 71 1011.7
20260510014543 18 0 0.0 0.0 0.00 0.03 0.03 69 1011.3
20260510013049 19 0 0.0 0.0 0.00 0.03 0.03 66 1011.0
20260510011545 20 0 0.0 0.0 0.00 0.03 0.03 65 1010.9
20260510010043 21 0 0.0 0.0 0.00 0.03 0.03 61 1010.6
20260510004546 22 0 0.0 0.0 0.00 0.03 0.03 58 1010.5
20260510003057 23 0 0.0 0.0 0.00 0.03 0.03 57 1010.2
20260510001542 24 0 0.0 0.0 0.00 0.03 0.03 51 1010.5
20260510000043 25 0 0.0 0.0 0.00 0.03 0.03 48 1010.6
20260509234547 26 0 0.0 0.0 0.00 0.03 0.03 44 1010.6
20260509233047 27 0 0.0 0.0 0.00 0.03 0.03 40 1010.6
20260509231543 28 0 0.0 1.6 0.00 0.03 0.03 35 1010.7
20260509230051 28 0 0.0 0.0 0.00 0.03 0.03 38 1010.5
20260509224553 29 0 0.0 0.0 0.00 0.03 0.03 35 1010.5
20260509223047 28 0 0.0 0.0 0.00 0.03 0.03 38 1010.7
20260509221541 28 0 0.0 1.6 0.00 0.03 0.03 39 1010.7
20260509220038 30 0 0.0 1.6 0.00 0.03 0.03 33 1010.7
20260509214544 30 233 0.0 1.6 0.00 0.03 0.03 36 1010.8
20260509213045 30 0 0.0 1.6 0.00 0.03 0.03 35 1010.9
20260509211545 30 193 0.0 1.6 0.00 0.03 0.03 34 1010.9
20260509210048 29 0 0.0 1.6 0.00 0.03 0.03 36 1011.1
20260509204540 30 0 0.0 1.6 0.00 0.03 0.03 33 1011.4
20260509203051 30 0 0.0 1.6 0.00 0.03 0.03 36 1011.4
20260509201544 30 0 0.0 3.2 0.00 0.03 0.03 35 1011.5
20260509200045 30 100 0.0 3.2 0.00 0.03 0.03 35 1011.4
20260509194544 28 0 0.0 1.6 0.00 0.03 0.03 35 1011.6
20260509193042 30 65 0.0 1.6 0.00 0.03 0.03 33 1011.7
20260509191539 30 175 0.0 3.2 0.00 0.03 0.03 34 1011.7
20260509190040 29 0 0.0 6.4 0.00 0.03 0.03 41 1011.8
20260509184545 29 192 0.0 1.6 0.00 0.03 0.03 43 1012.0
20260509183047 29 0 0.0 3.2 0.00 0.03 0.03 44 1011.9
20260509181605 29 0 0.0 1.6 0.00 0.03 0.03 41 1012.1
20260509180109 28 148 0.0 1.6 0.00 0.03 0.03 45 1012.2
20260509174543 27 0 0.0 4.8 0.00 0.03 0.03 46 1012.3
20260509173052 27 0 0.0 3.2 0.00 0.03 0.03 45 1012.3
20260509171552 28 0 0.0 3.2 0.00 0.03 0.03 47 1012.3
20260509170050 27 0 0.0 3.2 0.00 0.03 0.03 51 1012.5
20260509164543 27 0 0.0 6.4 0.00 0.03 0.03 53 1012.3
20260509163043 26 130 0.0 4.8 0.00 0.03 0.03 56 1012.3
20260509161559 26 223 0.0 3.2 0.00 0.03 0.03 58 1012.3
20260509160047 25 179 0.0 6.4 0.00 0.03 0.03 62 1012.3
20260509154545 25 143 0.0 4.8 0.00 0.03 0.03 64 1012.2
20260509153051 24 119 0.0 1.6 0.00 0.03 0.03 65 1012.1
20260509151551 23 0 0.0 3.2 0.00 0.03 0.03 67 1012.2
20260509150043 23 205 0.0 1.6 0.00 0.03 0.03 67 1012.2
20260509144549 22 0 0.0 3.2 0.00 0.03 0.03 70 1012.1
20260509143100 21 227 0.0 1.6 0.00 0.03 0.03 71 1012.2
20260509141558 20 187 0.0 3.2 0.00 0.03 0.03 75 1012.2
20260509140045 18 0 0.0 4.8 0.00 0.03 0.03 77 1012.1
20260509134550 18 233 0.0 3.2 0.00 0.03 0.03 79 1011.9
20260509133057 17 0 0.0 1.6 0.00 0.03 0.03 82 1011.7
20260509131543 16 0 0.0 1.6 0.00 0.03 0.03 87 1011.7
20260509130049 14 130 0.0 1.6 0.00 0.03 0.03 90 1011.6
20260509124549 14 0 0.0 1.6 0.00 0.03 0.03 94 1011.5
20260509123043 13 0 0.0 0.0 0.00 0.03 0.03 97 1011.3
20260509121551 12 0 0.0 0.0 0.00 0.03 0.03 97 1011.2
20260509120040 10 0 0.0 0.0 0.00 0.03 0.03 97 1011.0
20260509114537 8 0 0.0 0.0 0.00 0.03 0.03 97 1011.0
20260509113039 8 0 0.0 0.0 0.00 0.03 0.03 96 1010.7
20260509111543 8 0 0.0 0.0 0.00 0.03 0.03 96 1010.8
20260509110047 9 0 0.0 0.0 0.00 0.03 0.03 96 1010.8